{"data":{"norad_id":56423,"intl_designator":"2023-061BB","name":"STARLINK-6239","alt_names":[],"object_type":"PAYLOAD","status":"ACTIVE","operator":null,"country":"US","launch_date":"2023-05-04","launch_site_code":"AFETR","launch_vehicle":null,"mission":null,"orbit_class":"UNKNOWN","rcs_meters":null,"size_class":null,"mass_kg":null,"dimensions":null,"purposes":["comms"],"wikipedia_slug":null,"has_3d_model":false,"image_url":null,"decayed_at":null,"tle_current":{"epoch":"2026-05-24T08:34:27.626880Z","epoch_age_seconds":123970,"freshness":"FRESH","line1":"1 56423U 23061BB  26144.35726420 -.00000622  00000+0 -13520-4 0  9994","line2":"2 56423  43.0007 112.0883 0000744 273.2304  86.8462 15.26736042168538","mean_motion":15.26736042,"eccentricity":7.44e-5,"inclination_deg":43.0007,"raan_deg":112.0883,"arg_perigee_deg":273.2304,"mean_anomaly_deg":86.8462,"bstar":-1.352e-5,"rev_number":16853,"period_min":94.318858033483,"perigee_km":485.06671361025,"apogee_km":486.0880343091,"semimajor_km":6863.7143739597,"source":"CELESTRAK","updated_at":"2026-05-25T13:38:18.064158Z"}}}